Tracking 19847 objects as of 15-Sep-2019
HD Live streaming from Space Station
objects crossing your sky now

COSMOS 1375 DEB

Track COSMOS 1375 DEB now!
10-day predictions


NORAD ID: 16202
Int'l Code: 1982-055D
Perigee: 852.0 km
Apogee: 973.5 km
Inclination: 65.8 °
Period: 103.1 minutes
Semi major axis: 7283 km
RCS: 0.038 m2 (small)
Launch date: June 6, 1982
Source: Commonwealth of Independent States (former USSR) (CIS)
Launch site: PLESETSK MISSILE AND SPACE COMPLEX (PKMTR)

Note: This is SATELLITE DEBRIS
aabbcc
Your satellite tracking list
Your tracking list is empty




NASA's NSSDC Master Catalog

Two Line Element Set (TLE):
1 16202U 82055D   19257.92456369 +.00000040 +00000-0 +87594-4 0  9990
2 16202 065.8292 154.3937 0083406 175.5855 264.9308 13.96582971893096
Source of the keplerian elements: AFSPC